Colemans, Ontario

1:40 AM EDT on March 25, 2017 (GMT -0400)
Colemans

Weather History for 71262 - October, 2013

Change the Weather History Date:

Saturday, October 26, 2013

  Actual Average Record
Temperature  
Mean Temperature 44 °F -  
Max Temperature 46 °F 46 °F - ()
Min Temperature 42 °F 36 °F - ()
Degree Days  
Heating Degree Days 21    
Moisture  
Dew Point 39 °F    
Average Humidity 82    
Maximum Humidity 93    
Minimum Humidity 66    
Precipitation  
Precipitation 0.00 in 0.10 in - ()
Sea Level Pressure  
Sea Level Pressure 29.80 in    
Wind  
Wind Speed 16 mph ()    
Max Wind Speed 29 mph    
Max Gust Speed 44 mph    
Visibility 10.6 miles    
Events Rain    
T = Trace of Precipitation, MM = Missing Value Source: Averaged Metar Reports

Daily Weather History Graph

Daily Weather History Graph

Search for Another Location

Airport or City:

Trip Planner

Search our weather history database for the weather conditions in past years. The results will help you decide how hot, cold, wet, or windy it might be!

Date:

Astronomy

Oct. 26, 2013 Rise Set
Actual Time 7:44 AM EDT 6:16 PM EDT
Civil Twilight 7:14 AM EDT 6:45 PM EDT
Nautical Twilight 6:41 AM EDT 7:18 PM EDT
Astronomical Twilight 6:08 AM EDT 7:51 PM EDT
Moon No Moon Rise 2:00 PM EDT (10/26)
Length of Visible Light 11h 30m
Length of Day
10h 32m
Waning Gibbous, 53% of the Moon is Illuminated
Oct 26
Waning Gibbous
Oct 26
Last Quarter
Nov 3
New
Nov 10
First Quarter
Nov 17
Full

Hourly Weather History & Observations

Time (EDT) Temp. Windchill Dew Point Humidity Pressure Visibility Wind Dir Wind Speed Gust Speed Precip Events Conditions
7:00 AM 44.6 °F 36.9 °F 37.4 °F 76% 29.89 in 12.0 mi SW 18.4 mph 33.4 mph N/A Rain Light Rain Showers
7:50 AM 46.4 °F 38.1 °F 35.6 °F 66% 29.86 in 12.0 mi SW 24.2 mph 38.0 mph N/A   Overcast
8:00 AM 44.6 °F 37.2 °F 35.6 °F 71% 29.86 in 12.0 mi SW 17.3 mph 35.7 mph N/A Rain Light Rain Showers
9:00 AM 44.6 °F 35.3 °F 35.6 °F 71% 29.85 in 12.0 mi SW 26.5 mph 36.8 mph N/A Rain Light Rain Showers
9:47 AM 44.6 °F 34.9 °F 33.8 °F 66% 29.83 in 12.0 mi SW 28.8 mph 43.7 mph N/A   Overcast
10:00 AM 44.6 °F 35.5 °F 35.6 °F 71% 29.83 in 12.0 mi SW 25.3 mph 40.3 mph N/A Rain Light Rain Showers
11:00 AM 42.8 °F 33.3 °F 37.4 °F 81% 29.82 in 10.0 mi SW 24.2 mph 35.7 mph N/A Rain Light Rain Showers
12:00 PM 42.8 °F 35.1 °F 39.2 °F 87% 29.81 in 8.0 mi SW 16.1 mph 26.5 mph N/A Rain Light Rain Showers
1:00 PM 42.8 °F 33.5 °F 41.0 °F 93% 29.80 in 5.0 mi SW 23.0 mph 29.9 mph N/A Rain Light Rain Showers
2:00 PM 42.8 °F 36.6 °F 41.0 °F 93% 29.78 in 10.0 mi SW 11.5 mph 19.6 mph N/A Rain Light Rain Showers
3:00 PM 44.6 °F 37.4 °F 41.0 °F 87% 29.77 in 12.0 mi SW 16.1 mph 25.3 mph N/A Rain Light Rain Showers
4:00 PM 44.6 °F 38.1 °F 41.0 °F 87% 29.77 in 12.0 mi SW 13.8 mph - N/A Rain Light Rain Showers
4:24 PM 44.6 °F 38.8 °F 41.0 °F 87% 29.77 in 12.0 mi SW 11.5 mph 18.4 mph N/A   Overcast
4:45 PM 44.6 °F 38.4 °F 41.0 °F 87% 29.77 in 8.0 mi SW 12.7 mph - N/A Rain Light Rain Showers
5:00 PM 44.6 °F 37.4 °F 41.0 °F 87% 29.77 in 7.0 mi SW 16.1 mph - N/A Rain Light Rain Showers
6:00 PM 44.6 °F 39.2 °F 41.0 °F 87% 29.77 in 8.0 mi WSW 10.4 mph 19.6 mph N/A Rain Light Rain Showers
6:42 PM 44.6 °F 38.4 °F 41.0 °F 87% 29.78 in 10.0 mi SW 12.7 mph 18.4 mph N/A   Overcast
7:00 PM 44.6 °F 38.4 °F 41.0 °F 87% 29.78 in 10.0 mi SW 12.7 mph 18.4 mph N/A Rain Light Rain Showers
8:00 PM 44.6 °F 38.4 °F 41.0 °F 87% 29.77 in 12.0 mi WSW 12.7 mph 19.6 mph N/A   Overcast
8:31 PM 44.6 °F 38.1 °F 39.2 °F 81% 29.78 in 12.0 mi WSW 13.8 mph 23.0 mph N/A Rain Light Rain Showers
9:00 PM 44.6 °F 38.4 °F 37.4 °F 76% 29.77 in 15.0 mi West 12.7 mph - N/A Rain Light Rain Showers